Location: Batang Balui
(2.7000°N, 113.7833°E)
Time: 08:17:03
(UTC+00:00)

FO-29 - Visible Passes

Search period start: 01 April 2023 00:00
Search period end: 11 April 2023 00:00
Orbit: 801 x 1320 km, 98.5° (Epoch: 31 March)

Date Brightness Start Highest point End Pass type
(mag) Time Alt. Az. Time Alt. Az. Time Alt. Az.
01 Apr 11.4 20:13:16 10° NE 20:18:32 26° E 20:23:20 10° SSE visible
01 Apr 10.5 21:58:02 10° NNW 22:03:19 26° WNW 22:08:08 10° SW visible
02 Apr 9.5 21:01:58 10° NNE 21:08:33 88° ESE 21:14:20 10° SSW visible
03 Apr 11.6 20:08:32 10° NE 20:13:24 23° E 20:17:52 10° SSE visible
03 Apr 10.4 21:52:52 10° NNW 21:58:14 28° WNW 22:03:07 10° SW visible
04 Apr 9.5 20:56:59 10° NNE 21:03:25 80° E 21:09:06 10° S visible
05 Apr 11.7 20:03:49 10° NE 20:08:15 21° E 20:12:21 10° SSE visible
05 Apr 10.2 21:47:43 10° NNW 21:53:07 30° WNW 21:58:04 10° SW visible
06 Apr 9.6 20:52:01 10° NNE 20:58:17 73° ESE 21:03:51 10° S visible
07 Apr 11.8 19:59:09 10° ENE 20:03:05 18° E 20:06:47 10° SE visible
07 Apr 10.1 21:42:33 10° NNW 21:48:01 33° WNW 21:53:01 10° SW visible
08 Apr 9.7 20:47:02 10° NNE 20:53:08 65° ESE 20:58:35 10° S visible
09 Apr 11.9 19:54:33 10° ENE 19:57:56 16° E 20:01:08 10° SE visible
09 Apr 9.9 21:37:24 10° N 21:42:54 36° WNW 21:47:56 10° SW visible
10 Apr 9.9 20:42:03 10° NNE 20:47:58 58° E 20:53:18 10° S visible
